Location: Newark
(41.0400°S, 62.7845°W)
Time: 18:58:16
(UTC+00:00)

ISS - Pass Details

Date: 31 October 2021
Orbit: 417 x 423 km, 51.6° (Epoch: 29 November)

Event Time Altitude Azimuth Distance (km) Brightness Sun altitude
Rises 23:45:37 0° 232° (SW) 2,414 2.2 -10.1°
Reaches altitude 10° 23:47:47 10° 226° (SW) 1,543 0.5 -10.5°
Maximum altitude 23:51:10 50° 149° (SSE) 562 -3.2 -11.1°
Enters shadow 23:53:34 17° 77° (ENE) 1,164 -2.1 -11.4°
